Showing default

FENGYUN 3A, 32958

Orbit data source: Space-Track

FENGYUN 3A, 32958 is a payload satellite owned by CNMSC (CN) in SSO that was launched on Tue, 27 May 2008 UTC via a CHANG ZHENG 4C launch vehicle from the Taiyaun Space Center, China (TSC). Payload-class satellites include a variety of spacecraft equipped with specific instruments for various scientific and technological missions. These include communications satellites like Starlink; space stations such as the ISS; scientific satellites like the Hubble; Earth observation satellites from companies like Planet Labs, Umbra, and HawkEye 360; GPS; miniature CubeSats for education and research; and military/defense satellites.

Loading next visibility...
Identifier
32958, 2008-026A
Orbit
SSO
Country
Flag of CNCN / PRC
Related business
Manufacturer
SISE
Mission
Operational Civil Imaging
Bus & Motor
FY-3, Unknown motor
Mass
2,200 kg wet, 2,130 kg dry
Launch date (UTC)
2008-05-27 (18 years ago)
Launch vehicle
CHANG ZHENG 4C
Launch site
Taiyaun Space Center, China (TSC)
Object type
Payload
Rocket body
Debris
Shape & HBR
Box + 2 Pan, 5.0 m
Radar Cross Section
15.104 m², Large (>1 m²)

Expand to show TLE details & history
Last TLE update: 2 days ago

TLE from 2 days ago
0 FENGYUN 3A
1 32958U 08026A   26171.43054098  .00000055  00000-0  46755-4 0  9994
2 32958  98.6883 112.2031 0009703 115.2254 244.9929 14.19571712935868
Epoch: 2026-06-20T10:19Z
TLE epoch observation values (Epoch: 2026-06-20T10:19:58.740Z)
Latitude
-0.00005°
Longitude
48.56308°
Altitude
832.678 km
Speed
7.435 km/s
True Right ascension
07h 28m 48s
True Declination
0° 00' 00"
Sunlit
Object was in daylight at epoch
Visualization orbit readout
Latitude
Unknown
Longitude
Unknown
Altitude
Unknown
Speed
Unknown
Apparent Right ascension
Unknown
Apparent Declination
Unknown
Sunlit
N/A
Visualization observer readout
Local Sidereal Time
00:29:10
Azimuth
Unknown
Elevation
Unknown
Doppler factor
Unknown
Orbital elements
Apogee altitude
830.948 km
Perigee altitude
816.972 km
Semi-major axis
7,202.097 km
Eccentricity
0.00097
Inclination
98.6883°
RAAN
112.2031°
Arg. of periapsis
115.2254°
True anomaly
244.89219°
Mean anomaly
244.9929°
Eccentric anomaly
244.94254°
Mean motion
3.55103 °/min
Orbital period
101.38 mins
BSTAR
0.000046755
Loading maneuver chart data...
Computing Atmospheric mass density...
Loading historical data...
Loading historical data...
Loading historical data...
Loading historical data...
Loading historical data...
Loading historical data...
Loading historical data...
Other satellites on launch #26 in the year 2008 (2008-05-27 UTC)

Documentation

Showing up to 5 results
|